Location: Cahas Mountain Overlook
(37.0833°N, 80.1000°W)
Time: 01:25:37
(UTC-04:00)

AO-7 - Visible Passes

Search period start: 23 March 2023 00:00
Search period end: 02 April 2023 00:00
Orbit: 1440 x 1458 km, 101.9° (Epoch: 22 March)

Date Brightness Start Highest point End Pass type
(mag) Time Alt. Az. Time Alt. Az. Time Alt. Az.
23 Mar ? 05:56:26 10° NNE 06:04:45 66° ESE 06:12:58 10° S visible
24 Mar ? 04:57:39 10° NE 05:04:25 27° E 05:11:04 10° SSE visible
24 Mar ? 06:49:20 10° N 06:57:31 62° WNW 07:05:38 10° SW visible
25 Mar ? 05:49:26 10° NNE 05:57:40 60° ESE 06:05:48 10° S visible
26 Mar ? 04:50:54 10° NE 04:57:16 24° E 05:03:33 10° SE visible
26 Mar ? 06:42:14 10° NNE 06:50:29 68° WNW 06:58:41 10° SSW visible
27 Mar ? 05:42:27 10° NNE 05:50:34 54° ESE 05:58:36 10° S visible
28 Mar ? 04:44:12 10° NE 04:50:06 21° E 04:55:56 10° SE visible
28 Mar ? 06:35:08 10° NNE 06:43:28 75° WNW 06:51:43 10° SSW visible
29 Mar ? 05:35:29 10° NNE 05:43:28 48° ESE 05:51:23 10° S visible
30 Mar ? 04:37:35 10° NE 04:42:56 18° E 04:48:14 10° SE visible
30 Mar ? 06:28:04 10° NNE 06:36:25 82° WNW 06:44:42 10° SSW visible
31 Mar ? 05:28:33 10° NNE 05:36:23 43° E 05:44:06 10° S visible
01 Apr ? 04:31:04 10° ENE 04:35:45 16° E 04:40:24 10° SE visible
01 Apr ? 06:21:00 10° NNE 06:29:22 90° NNW 06:37:41 10° SSW visible
